Location: Orange
(33.2833°S, 149.1000°E)
Time: 18:56:35
(UTC+11:00)

Hubble Space Telescope - Pass Details

Date: 03 October 2022
Orbit: 530 x 534 km, 28.5° (Epoch: 04 December)

Event Time Altitude Azimuth Distance (km) Brightness Sun altitude
Exits shadow 04:52:39 35° 18° (NNE) 877 1.7 -22.4°
Drops below altitude 10° 04:56:13 10° 76° (ENE) 1,789 4.2 -21.7°
Sets 04:58:37 0° 84° (E) 2,682 5.4 -21.3°
